Flag for Switzerland Weather past 2 weeks in Küssnacht, Schwyz, Switzerland

Now
50 °F

Cool.


Feels Like: 46 °F
Forecast: 28 / 50 °F
Wind: 10 mph from Northwest

Location: Altdorf


UV Index: 3 (Moderate)

Visibility: N/A


Pressure: 29.77 "Hg

Humidity: 62%

Dew point: 37 °F

Location of KüssnachtLocation

Historic Weather in Küssnacht

°F

Küssnacht temperature yesterday

Maximum temperature yesterday: 54 °F (at 12:00 PM)
Minimum temperature yesterday: 37 °F (at 7:00 AM)
Average temperature yesterday: 44 °F

Past Weeks' High & Low Weather Summary

 TemperatureHumidityPressure
High67 °F (Apr 11, 5:00 PM)96% (Apr 6, 7:00 AM)30.34 "Hg (Apr 6, 7:00 AM)
Low31 °F (Apr 17, 7:00 AM)37% (Apr 15, 3:00 PM)29.65 "Hg (Apr 4, 4:00 PM)
Average51 °F68%30.08 "Hg
* Reported Apr 4 2:00 PM — Apr 19 2:00 PM, Küssnacht, Weather by CustomWeather, © 2014

Note: Actual official high and low records may vary slightly from our data, if they occured in-between our weather recording intervals... More about our weather records

Advertising

Historic Weather Conditions — Data for Previous 24 hours

 ConditionsComfort  
Time TempWeatherWind HumidityBarometerVisibility
2:00 PM
Apr 19
53 °FScattered clouds.9 mph63%29.77 "Hg12 mi
1:00 PM47 °FCool.6 mph60%29.78 "HgN/A
12:00 PM47 °FCool.2 mph59%29.79 "HgN/A
10:00 AM42 °FQuite cool.2 mph78%29.83 "HgN/A
9:00 AM40 °FChilly.5 mph86%29.84 "HgN/A
8:00 AM38 °FRain. Overcast.3 mph88%29.85 "Hg4 mi
7:00 AM38 °FChilly.3 mph89%29.85 "HgN/A
6:00 AM39 °FChilly.3 mph86%29.85 "HgN/A
5:00 AM39 °FLight rain. Overcast.1 mph85%29.86 "Hg4 mi
4:00 AM39 °FChilly.8 mph84%29.87 "HgN/A
3:00 AM39 °FChilly.5 mph83%29.89 "HgN/A
2:00 AM39 °FLight rain. Overcast.6 mph90%29.91 "Hg4 mi
1:00 AM39 °FChilly.2 mph87%29.93 "HgN/A
12:00 AM39 °FChilly.1 mph89%29.95 "HgN/A
11:00 PM
Apr 18
39 °FRain. Overcast.6 mph88%29.96 "Hg3 mi
10:00 PM39 °FChilly.5 mph90%29.97 "HgN/A
9:00 PM38 °FChilly.3 mph91%29.98 "HgN/A
8:00 PM39 °FRain. Overcast.6 mph86%29.98 "Hg6 mi
7:00 PM40 °FChilly.15 mph86%29.95 "HgN/A
6:00 PM46 °FCool.14 mph83%29.84 "HgN/A
5:00 PM49 °FCool.2 mph75%29.84 "HgN/A
4:00 PM49 °FCool.2 mph70%29.86 "HgN/A
3:00 PM50 °FCool.6 mph63%29.87 "HgN/A
Weather by CustomWeather, © 2014

See weather overview